User: anonymous   Login
Location: Eymir
(36.7333°N, 29.7833°E)
Time: 13:23:41
(UTC+00:00)
Language:

Sakura Rocket - Orbit

View from above orbital plane
View from above orbital plane
View from above satellite
View from above satellite

Ground track
Ground track

The orbit is defined by the following mean orbital elements,

1 10517U          26072.94692199 +.00000000 +00000-0 +34021-3 0 00006
2 10517  28.6563 165.1263 0813974 156.1309 207.9273 13.47367599    01
Epoch (UTC): 13 March 2026 22:43:34
Eccentricity: 0.0813974
inclination: 28.6563°
perigee height: 475 km
apogee height: 1689 km
right ascension of ascending node: 165.1263°
argument of perigee: 156.1309°
revolutions per day: 13.47367599
mean anomaly at epoch: 207.9273°

The dashed part of the orbit path shows where the satellite is in the earth's shadow,  

DLR